KAITUO 1B
1 40912U 15049P   19265.77284209  .00000636  00000-0  32908-4 0  9998
2 40912  97.4515 271.8908 0014207 191.4538 254.5710 15.19747833221905
TIANWANG 1C (TW-1C)
1 40926U 15051B   19265.82813574  .00008964  00000-0  12365-3 0  9991
2 40926  97.1262 311.9304 0008190  27.6496  60.6775 15.57392114225113
TIANWANG 1B (TW-1B)
1 40927U 15051C   19265.89270113  .00008204  00000-0  12054-3 0  9997
2 40927  97.1287 311.1692 0008850  35.1320  84.8244 15.55701434224964
TIANWANG 1A (TW-1A)
1 40928U 15051D   19265.79946130  .00002112  00000-0  52727-4 0  9990
2 40928  97.1388 294.9656 0012723  83.7808  35.5612 15.41208857223977
LAPAN A2
1 40931U 15052B   19264.99006146  .00000693  00000-0  74138-5 0  9993
2 40931   5.9951  97.0071 0013348  61.8969 298.2590 14.76614146215373
LQSAT
1 40958U 15057A   19265.27132715 -.00000005  00000-0  68421-5 0  9997
2 40958  97.8905 331.8458 0016862 296.5100  63.4379 14.73089133212875
CHUBUSAT 2
1 41338U 16012B   19264.44078288  .00000280  00000-0  15080-4 0  9990
2 41338  31.0026 262.6180 0013769 321.5525  38.4129 15.00180344197153
CHUBUSAT 3
1 41339U 16012C   19265.39718789  .00000298  00000-0  16383-4 0  9999
2 41339  31.0111 254.5123 0013807 339.5919  20.4164 15.00354411197298
OUFTI-1
1 41458U 16025C   19265.00653906  .00001166  00000-0  62735-4 0  9999
2 41458  98.1004 356.6969 0166644  37.0079 324.2504 15.06026133186915
E-STAR-2
1 41459U 16025D   19265.77703207  .00000997  00000-0  54669-4 0  9992
2 41459  98.1012 357.1141 0167940  36.0498 325.1906 15.05657832187009
AAUSAT 4
1 41460U 16025E   19265.82996957  .00000890  00000-0  48253-4 0  9990
2 41460  98.0931 358.6535 0157911  27.1871 333.7479 15.07617162187156
NUSAT 1
1 41557U 16033B   19265.83100434  .00000913  00000-0  36793-4 0  9996
2 41557  97.4157 352.7706 0012664 323.7967  36.2414 15.27380497184765
BEESAT 4
1 41619U 16040W   19265.82118136  .00000955  00000-0  43108-4 0  9994
2 41619  97.3585 326.2157 0012547  51.5919 308.6442 15.23305987168493
PRATHAM
1 41783U 16059A   19265.41866421  .00000025  00000-0  13979-4 0  9999
2 41783  98.0580 322.8400 0034916  83.5006 277.0169 14.63009693159546
ALSAT 1N
1 41789U 16059G   19265.66727125  .00000056  00000-0  19520-4 0  9991
2 41789  98.0607 325.2883 0029538  71.9521 288.4900 14.64262430159697
NAYIF 1
1 42017U 17008BX  19264.73670768  .00000962  00000-0  40552-4 0  9993
2 42017  97.3949 330.8202 0006148 178.8980 181.2273 15.25718395144419
MAX VALIER SAT
1 42778U 17036P   19265.70932007  .00000591  00000-0  28779-4 0  9998
2 42778  97.3451 321.2175 0010830 243.3272 116.6856 15.22138174124841
